Retour au catalogue

COSMOS 1275 DEB

ActifPO
NORAD 42101·DEBRIS·🇷🇺 Russia

Lancé Jun 4, 1981 depuis Plesetsk Cosmodrome

Loading…

Prochains Passages (prochaines 24 heures)

TLE

FraisSource: Space-Track

Époque: Sep 12, 2026, 11:39 UTC

1 42101U 81053PM  26255.48552686  .00054443  00000-0  32813-2 0  9998
2 42101  82.7592 163.8385 0005402  66.2384 293.9412 15.10517713627058

Suivez COSMOS 1275 DEB en temps réel avec AllMySat

Download on the App Store